Regional Weather Roundup
Issued by NWS

Home | Current Version | Previous Version | Text Only | Print | Product List | Glossary Off
Versions: 1 2 3 4 5 6 7 8 9 10 11 12 13 14 15 16 17 18 19 20 21 22 23 24 25 26 27 28 29 30 31 32 33 34 35 36 37 38 39 40 41 42 43 44 45 46 47 48 49 50

274
ASUS43 KOAX 110810
RWRNE

WEATHER ROUNDUP FOR NEBRASKA
NATIONAL WEATHER SERVICE OMAHA NE
200 AM CST SUN DEC 11 2016

NOTES: SATELLITE DATA IS BEING USED TO AUGMENT CLOUD COVER ABOVE
       12000 FEET.
       "FAIR" INDICATES FEW OR NO CLOUDS BELOW 12,000 FEET WITH NO
       SIGNIFICANT WEATHER AND/OR OBSTRUCTIONS TO VISIBILITY.

  * THESE STATIONS DO NOT REPORT WEATHER SUCH AS RAIN...SNOW OR FOG.

NEZ001>004-019>022-054>056-110900-
NEBRASKA PANHANDLE

CITY           SKY/WX    TMP DP  RH WIND       PRES   REMARKS
SCOTTSBLUFF    CLOUDY    34  22  61 W13G21    29.78R WCI  25
ALLIANCE       CLOUDY    18  12  77 NW6       29.74S WCI  10
CHADRON        CLOUDY    10   5  80 CALM      29.82R
KIMBALL        CLOUDY    34  29  83 N17       29.76R WCI  23
SIDNEY         CLOUDY    36  27  69 N21       29.74R WCI  25
$$

NEZ057>060-069>072-079>082-110900-
SOUTHWEST NEBRASKA

CITY           SKY/WX    TMP DP  RH WIND       PRES   REMARKS
NORTH PLATTE   CLOUDY    21  19  92 NW8       29.69R WCI  11
IMPERIAL       CLOUDY    27  23  85 NW6       29.66S WCI  20
LEXINGTON      CLOUDY    23  20  89 S3        29.66F
MCCOOK         CLOUDY    21  19  92 N5        29.66F WCI  15
OGALLALA       CLOUDY    37  31  77 NW17G23   29.68R WCI  28
$$

NEZ005>010-023>029-035>040-094-110900-
NORTH CENTRAL NEBRASKA

CITY           SKY/WX    TMP DP  RH WIND       PRES   REMARKS
VALENTINE      CLOUDY    12   8  84 NW15      29.76R FOG     WCI  -4
AINSWORTH      CLOUDY    18  17  96 NW14      29.72R WCI   4
BROKEN BOW     CLOUDY    24  21  88 SW3       29.64F
O`NEILL        CLOUDY    18  16  93 N3        29.71R
ORD            CLOUDY    23  18  81 SE3       29.67F
THEDFORD       MOCLDY    19  15  87 NW16      29.71R WCI   4
$$

NEZ041-046>049-061>064-073>077-083>087-110900-
SOUTH CENTRAL NEBRASKA

CITY           SKY/WX    TMP DP  RH WIND       PRES   REMARKS
GRAND ISLAND   CLOUDY    26  22  84 S7        29.71F WCI  18
AURORA         CLOUDY    26  21  80 SE8       29.71F WCI  18
HASTINGS       CLOUDY    27  22  81 S8        29.70F WCI  19
HEBRON         CLOUDY    28  22  79 CALM      29.74S
HOLDREGE       CLOUDY    25  22  89 S5        29.68S WCI  19
KEARNEY *      CLOUDY    23  18  80 S3        29.69S
YORK           CLOUDY    28  23  80 S9        29.72F WCI  20
$$

NEZ011>018-030>034-042>045-110900-
NORTHEAST NEBRASKA

CITY           SKY/WX    TMP DP  RH WIND       PRES   REMARKS
NORFOLK        CLOUDY    23  18  81 SE12      29.72F WCI  12
ALBION         CLOUDY    25  19  80 SE7       29.70F WCI  17
BLAIR          CLOUDY    32  21  65 SE10      29.78F WCI  23
FREMONT        CLOUDY    31  22  69 SE9       29.78F WCI  23
TEKAMAH        CLOUDY    28  21  75 E6        29.83R WCI  22
WAYNE          CLOUDY    27  22  83 SE13      29.76F WCI  16
$$

NEZ050>053-065>068-078-088>093-110900-
SOUTHEAST NEBRASKA

CITY           SKY/WX    TMP DP  RH WIND       PRES   REMARKS
LINCOLN        PTCLDY    30  21  69 SE9       29.78F WCI  22
OMAHA EPPLEY   CLOUDY    31  19  61 SE13      29.81F WCI  21
BEATRICE       CLOUDY    32  23  69 SE7       29.76F WCI  26
FALLS CITY     CLOUDY    35  22  58 E6        29.83S WCI  30
NEBRASKA CITY  MOCLDY    32  17  55 SE8       29.80F WCI  25
PLATTSMOUTH    CLOUDY    32  18  55 SE13      29.79F WCI  22
$$

NEZ044-045-051>053-067-110900-
OMAHA AREA

CITY           SKY/WX    TMP DP  RH WIND       PRES   REMARKS
OMAHA EPPLEY   CLOUDY    31  19  61 SE13      29.81F WCI  21
BLAIR          CLOUDY    32  21  65 SE10      29.78F WCI  23
FREMONT        CLOUDY    31  22  69 SE9       29.78F WCI  23
MILLARD        CLOUDY    32  22  66 SE6       29.80F WCI  27
OFFUTT AFB     CLOUDY    31  21  68 E9        29.80F WCI  22
PLATTSMOUTH    CLOUDY    32  18  55 SE13      29.79F WCI  22
WAHOO          FAIR      29  21  73 SE9       29.78F WCI  20
$$




USA.gov is the U.S. government's official web portal to all federal, state and local government web resources and services.